Time,TemperatureF,DewpointF,PressureIn,WindDirection,WindDirectionDegrees,WindSpeedMPH,WindSpeedGustMPH,Humidity,HourlyPrecipIn,Conditions,Clouds,dailyrainin,SoftwareType,DateUTC
2013-05-18 00:01:00,57.5,45.4,30.19,ENE,63,0.0,0.0,64,0.00,,,0.00,WeatherCatV1.02B3,2013-05-18 04:01:00,
2013-05-18 00:06:00,57.3,45.6,30.19,ENE,63,0.0,0.0,65,0.00,,,0.00,WeatherCatV1.02B3,2013-05-18 04:06:00,
2013-05-18 00:11:00,57.1,45.4,30.19,ENE,63,0.0,0.0,65,0.00,,,0.00,WeatherCatV1.02B3,2013-05-18 04:11:00,
2013-05-18 00:16:00,56.9,45.3,30.19,ENE,63,0.0,0.0,65,0.00,,,0.00,WeatherCatV1.02B3,2013-05-18 04:16:00,
2013-05-18 00:21:00,56.7,45.9,30.19,ENE,63,0.0,0.0,67,0.00,,,0.00,WeatherCatV1.02B3,2013-05-18 04:21:00,
2013-05-18 00:26:00,56.5,45.7,30.19,ENE,63,0.0,0.0,67,0.00,,,0.00,WeatherCatV1.02B3,2013-05-18 04:26:00,
2013-05-18 00:31:00,56.3,45.9,30.19,ENE,63,0.0,0.0,68,0.00,,,0.00,WeatherCatV1.02B3,2013-05-18 04:31:00,
2013-05-18 00:36:00,56.1,45.7,30.19,ENE,63,0.0,0.0,68,0.00,,,0.00,WeatherCatV1.02B3,2013-05-18 04:36:00,
2013-05-18 00:41:00,56.0,45.6,30.19,ENE,63,0.0,0.0,68,0.00,,,0.00,WeatherCatV1.02B3,2013-05-18 04:41:00,
2013-05-18 00:46:00,55.9,45.9,30.19,ENE,63,0.0,0.0,69,0.00,,,0.00,WeatherCatV1.02B3,2013-05-18 04:46:00,
2013-05-18 00:51:00,55.7,45.7,30.18,ENE,63,0.0,0.0,69,0.00,,,0.00,WeatherCatV1.02B3,2013-05-18 04:51:00,
2013-05-18 00:56:00,55.4,45.8,30.18,ENE,63,0.0,0.0,70,0.00,,,0.00,WeatherCatV1.02B3,2013-05-18 04:56:00,
2013-05-18 01:01:00,55.2,46.0,30.19,ENE,63,0.0,0.0,71,0.00,,,0.00,WeatherCatV1.02B3,2013-05-18 05:01:00,
2013-05-18 01:06:00,55.1,45.9,30.19,ENE,63,0.0,0.0,71,0.00,,,0.00,WeatherCatV1.02B3,2013-05-18 05:06:00,
2013-05-18 01:11:00,54.8,45.9,30.19,ENE,63,0.0,0.0,72,0.00,,,0.00,WeatherCatV1.02B3,2013-05-18 05:11:00,
2013-05-18 01:16:00,54.7,45.9,30.19,ENE,63,0.0,0.0,72,0.00,,,0.00,WeatherCatV1.02B3,2013-05-18 05:16:00,
2013-05-18 01:21:00,54.5,45.7,30.19,ENE,63,0.0,0.0,72,0.00,,,0.00,WeatherCatV1.02B3,2013-05-18 05:21:00,
2013-05-18 01:26:00,54.3,45.8,30.19,ENE,63,0.0,0.0,73,0.00,,,0.00,WeatherCatV1.02B3,2013-05-18 05:26:00,
2013-05-18 01:31:00,54.0,45.5,30.19,ENE,63,0.0,0.0,73,0.00,,,0.00,WeatherCatV1.02B3,2013-05-18 05:31:00,
2013-05-18 01:36:00,53.9,45.8,30.19,ENE,63,0.0,0.0,74,0.00,,,0.00,WeatherCatV1.02B3,2013-05-18 05:36:00,
2013-05-18 01:41:00,53.7,45.6,30.19,ENE,63,0.0,0.0,74,0.00,,,0.00,WeatherCatV1.02B3,2013-05-18 05:41:00,
2013-05-18 01:46:00,53.5,45.8,30.20,ENE,63,2.0,2.0,75,0.00,,,0.00,WeatherCatV1.02B3,2013-05-18 05:46:00,
2013-05-18 01:51:00,53.4,46.0,30.20,ENE,63,0.0,1.0,76,0.00,,,0.00,WeatherCatV1.02B3,2013-05-18 05:51:00,
2013-05-18 01:56:00,53.3,46.6,30.20,ENE,63,0.0,2.0,78,0.00,,,0.00,WeatherCatV1.02B3,2013-05-18 05:56:00,
2013-05-18 02:01:00,53.3,46.6,30.19,ENE,63,1.0,1.0,78,0.00,,,0.00,WeatherCatV1.02B3,2013-05-18 06:01:00,
2013-05-18 02:06:00,53.3,47.0,30.19,ENE,63,0.0,1.0,79,0.00,,,0.00,WeatherCatV1.02B3,2013-05-18 06:06:00,
2013-05-18 02:11:00,53.2,46.9,30.19,ENE,63,0.0,1.0,79,0.00,,,0.00,WeatherCatV1.02B3,2013-05-18 06:11:00,
2013-05-18 02:16:00,53.2,47.2,30.19,ENE,63,0.0,0.0,80,0.00,,,0.00,WeatherCatV1.02B3,2013-05-18 06:16:00,
2013-05-18 02:21:00,53.2,47.2,30.19,ENE,63,0.0,0.0,80,0.00,,,0.00,WeatherCatV1.02B3,2013-05-18 06:21:00,
2013-05-18 02:26:00,53.3,47.6,30.20,ENE,63,0.0,1.0,81,0.00,,,0.00,WeatherCatV1.02B3,2013-05-18 06:26:00,
2013-05-18 02:31:00,53.3,47.6,30.20,ENE,63,0.0,0.0,81,0.00,,,0.00,WeatherCatV1.02B3,2013-05-18 06:31:00,
2013-05-18 02:36:00,53.3,47.6,30.20,ENE,63,0.0,1.0,81,0.00,,,0.00,WeatherCatV1.02B3,2013-05-18 06:36:00,
2013-05-18 02:41:00,53.2,47.5,30.20,ENE,63,0.0,0.0,81,0.00,,,0.00,WeatherCatV1.02B3,2013-05-18 06:41:00,
2013-05-18 02:46:00,53.1,47.4,30.20,ENE,63,0.0,0.0,81,0.00,,,0.00,WeatherCatV1.02B3,2013-05-18 06:46:00,
2013-05-18 02:51:00,53.1,47.4,30.20,ENE,63,0.0,0.0,81,0.00,,,0.00,WeatherCatV1.02B3,2013-05-18 06:51:00,
2013-05-18 02:56:00,53.0,47.7,30.20,ENE,63,0.0,1.0,82,0.00,,,0.00,WeatherCatV1.02B3,2013-05-18 06:56:00,
2013-05-18 03:01:00,53.0,47.7,30.20,ENE,63,0.0,0.0,82,0.00,,,0.00,WeatherCatV1.02B3,2013-05-18 07:01:00,
2013-05-18 03:06:00,53.0,47.7,30.20,ENE,63,0.0,0.0,82,0.00,,,0.00,WeatherCatV1.02B3,2013-05-18 07:06:00,
2013-05-18 03:11:00,52.9,47.6,30.20,ENE,63,0.0,0.0,82,0.00,,,0.00,WeatherCatV1.02B3,2013-05-18 07:11:00,
2013-05-18 03:16:00,52.8,47.5,30.20,ENE,63,0.0,0.0,82,0.00,,,0.00,WeatherCatV1.02B3,2013-05-18 07:16:00,
2013-05-18 03:21:00,52.7,47.7,30.20,ENE,63,0.0,0.0,83,0.00,,,0.00,WeatherCatV1.02B3,2013-05-18 07:21:00,
2013-05-18 03:26:00,52.6,47.6,30.20,ENE,63,0.0,0.0,83,0.00,,,0.00,WeatherCatV1.02B3,2013-05-18 07:26:00,
2013-05-18 03:31:00,52.5,47.5,30.21,ENE,63,0.0,0.0,83,0.00,,,0.00,WeatherCatV1.02B3,2013-05-18 07:31:00,
2013-05-18 03:36:00,52.4,47.4,30.21,ENE,63,0.0,0.0,83,0.00,,,0.00,WeatherCatV1.02B3,2013-05-18 07:36:00,
2013-05-18 03:41:00,52.2,47.5,30.21,ENE,63,0.0,0.0,84,0.00,,,0.00,WeatherCatV1.02B3,2013-05-18 07:41:00,
2013-05-18 03:46:00,52.1,47.4,30.21,ENE,63,0.0,0.0,84,0.00,,,0.00,WeatherCatV1.02B3,2013-05-18 07:46:00,
2013-05-18 03:51:00,52.0,47.6,30.21,ENE,63,0.0,0.0,85,0.00,,,0.00,WeatherCatV1.02B3,2013-05-18 07:51:00,
2013-05-18 03:56:00,51.8,47.4,30.21,ENE,63,0.0,0.0,85,0.00,,,0.00,WeatherCatV1.02B3,2013-05-18 07:56:00,
2013-05-18 04:01:00,51.7,47.3,30.22,ENE,63,0.0,0.0,85,0.00,,,0.00,WeatherCatV1.02B3,2013-05-18 08:01:00,
2013-05-18 04:06:00,51.6,47.2,30.22,ENE,63,0.0,0.0,85,0.00,,,0.00,WeatherCatV1.02B3,2013-05-18 08:06:00,
2013-05-18 04:11:00,51.4,47.4,30.22,ENE,63,0.0,0.0,86,0.00,,,0.00,WeatherCatV1.02B3,2013-05-18 08:11:00,
2013-05-18 04:16:00,51.3,47.3,30.22,ENE,63,0.0,0.0,86,0.00,,,0.00,WeatherCatV1.02B3,2013-05-18 08:16:00,
2013-05-18 04:21:00,51.1,47.4,30.22,ENE,63,0.0,0.0,87,0.00,,,0.00,WeatherCatV1.02B3,2013-05-18 08:21:00,
2013-05-18 04:26:00,51.0,47.3,30.22,ENE,63,0.0,0.0,87,0.00,,,0.00,WeatherCatV1.02B3,2013-05-18 08:26:00,
2013-05-18 04:31:00,50.9,47.5,30.22,ENE,63,0.0,0.0,88,0.00,,,0.00,WeatherCatV1.02B3,2013-05-18 08:31:00,
2013-05-18 04:36:00,50.8,47.4,30.22,ENE,63,0.0,0.0,88,0.00,,,0.00,WeatherCatV1.02B3,2013-05-18 08:36:00,
2013-05-18 04:41:00,50.7,47.3,30.22,ENE,63,0.0,0.0,88,0.00,,,0.00,WeatherCatV1.02B3,2013-05-18 08:41:00,
2013-05-18 04:46:00,50.5,47.4,30.22,ENE,63,0.0,0.0,89,0.00,,,0.00,WeatherCatV1.02B3,2013-05-18 08:46:00,
2013-05-18 04:51:00,50.4,47.3,30.23,ENE,63,0.0,0.0,89,0.00,,,0.00,WeatherCatV1.02B3,2013-05-18 08:51:00,
2013-05-18 04:56:00,50.4,47.6,30.22,ENE,63,0.0,0.0,90,0.00,,,0.00,WeatherCatV1.02B3,2013-05-18 08:56:00,
2013-05-18 05:01:00,50.4,47.6,30.23,ENE,63,0.0,0.0,90,0.00,,,0.00,WeatherCatV1.02B3,2013-05-18 09:01:00,
2013-05-18 05:06:00,50.3,47.5,30.23,ENE,63,0.0,0.0,90,0.00,,,0.00,WeatherCatV1.02B3,2013-05-18 09:06:00,
2013-05-18 05:11:00,50.3,47.8,30.23,ENE,63,0.0,0.0,91,0.00,,,0.00,WeatherCatV1.02B3,2013-05-18 09:11:00,
2013-05-18 05:16:00,50.2,47.7,30.23,ENE,63,0.0,0.0,91,0.00,,,0.00,WeatherCatV1.02B3,2013-05-18 09:16:00,
2013-05-18 05:21:00,50.2,47.7,30.23,ENE,63,0.0,0.0,91,0.00,,,0.00,WeatherCatV1.02B3,2013-05-18 09:21:00,
2013-05-18 05:26:00,50.1,47.6,30.24,ENE,63,0.0,0.0,91,0.00,,,0.00,WeatherCatV1.02B3,2013-05-18 09:26:00,
2013-05-18 05:31:00,50.1,47.9,30.24,ENE,63,0.0,0.0,92,0.00,,,0.00,WeatherCatV1.02B3,2013-05-18 09:31:00,
2013-05-18 05:36:00,50.1,47.9,30.24,ENE,63,0.0,0.0,92,0.00,,,0.00,WeatherCatV1.02B3,2013-05-18 09:36:00,
2013-05-18 05:41:00,50.2,48.0,30.24,ENE,63,0.0,0.0,92,0.00,,,0.00,WeatherCatV1.02B3,2013-05-18 09:41:00,
2013-05-18 05:46:00,50.2,48.0,30.24,ENE,63,0.0,0.0,92,0.00,,,0.00,WeatherCatV1.02B3,2013-05-18 09:46:00,
2013-05-18 05:51:00,50.1,47.9,30.24,ENE,63,0.0,0.0,92,0.00,,,0.00,WeatherCatV1.02B3,2013-05-18 09:51:00,
2013-05-18 05:56:00,50.1,48.2,30.24,ENE,63,0.0,0.0,93,0.00,,,0.00,WeatherCatV1.02B3,2013-05-18 09:56:00,
2013-05-18 06:01:00,50.1,48.2,30.25,ENE,63,0.0,0.0,93,0.00,,,0.00,WeatherCatV1.02B3,2013-05-18 10:01:00,
2013-05-18 06:06:00,50.1,48.2,30.25,ENE,63,0.0,0.0,93,0.00,,,0.00,WeatherCatV1.02B3,2013-05-18 10:06:00,
2013-05-18 06:11:00,50.2,48.3,30.25,ENE,63,0.0,0.0,93,0.00,,,0.00,WeatherCatV1.02B3,2013-05-18 10:11:00,
2013-05-18 06:16:00,50.3,48.4,30.25,ENE,63,0.0,0.0,93,0.00,,,0.00,WeatherCatV1.02B3,2013-05-18 10:16:00,
2013-05-18 06:21:00,50.4,48.5,30.25,ENE,63,0.0,0.0,93,0.00,,,0.00,WeatherCatV1.02B3,2013-05-18 10:21:00,
2013-05-18 06:26:00,50.5,48.6,30.25,ENE,63,0.0,0.0,93,0.00,,,0.00,WeatherCatV1.02B3,2013-05-18 10:26:00,
2013-05-18 06:31:00,50.7,48.7,30.25,ENE,63,0.0,0.0,93,0.00,,,0.00,WeatherCatV1.02B3,2013-05-18 10:31:00,
2013-05-18 06:36:00,50.9,48.9,30.26,ENE,63,0.0,0.0,93,0.00,,,0.00,WeatherCatV1.02B3,2013-05-18 10:36:00,
2013-05-18 06:41:00,51.2,49.2,30.26,ENE,63,0.0,0.0,93,0.00,,,0.00,WeatherCatV1.02B3,2013-05-18 10:41:00,
2013-05-18 06:46:00,51.5,49.5,30.26,ENE,63,0.0,0.0,93,0.00,,,0.00,WeatherCatV1.02B3,2013-05-18 10:46:00,
2013-05-18 06:51:00,51.8,49.5,30.26,ENE,63,0.0,0.0,92,0.00,,,0.00,WeatherCatV1.02B3,2013-05-18 10:51:00,
2013-05-18 06:53:00,51.9,49.6,30.26,ENE,63,0.0,0.0,92,0.00,,,0.00,WeatherCatV1.02B3,2013-05-18 10:53:00,
2013-05-18 06:58:00,52.1,49.6,30.26,ENE,63,0.0,0.0,91,0.00,,,0.00,WeatherCatV1.02B3,2013-05-18 10:58:00,
2013-05-18 07:03:00,52.3,49.8,30.26,ENE,63,0.0,0.0,91,0.00,,,0.00,WeatherCatV1.02B3,2013-05-18 11:03:00,
2013-05-18 07:08:00,52.5,49.9,30.26,ENE,63,0.0,0.0,91,0.00,,,0.00,WeatherCatV1.02B3,2013-05-18 11:08:00,
2013-05-18 07:13:00,52.7,49.8,30.26,ENE,63,0.0,0.0,90,0.00,,,0.00,WeatherCatV1.02B3,2013-05-18 11:13:00,
2013-05-18 07:18:00,53.0,50.1,30.27,ENE,63,0.0,0.0,90,0.00,,,0.00,WeatherCatV1.02B3,2013-05-18 11:18:00,
2013-05-18 07:23:00,53.3,49.8,30.27,ENE,63,0.0,0.0,88,0.00,,,0.00,WeatherCatV1.02B3,2013-05-18 11:23:00,
2013-05-18 07:28:00,53.6,50.1,30.27,ENE,63,0.0,0.0,88,0.00,,,0.00,WeatherCatV1.02B3,2013-05-18 11:28:00,
2013-05-18 07:33:00,54.0,50.2,30.27,ENE,63,0.0,0.0,87,0.00,,,0.00,WeatherCatV1.02B3,2013-05-18 11:33:00,
2013-05-18 07:38:00,54.4,50.3,30.27,ENE,63,0.0,1.0,86,0.00,,,0.00,WeatherCatV1.02B3,2013-05-18 11:38:00,
2013-05-18 07:43:00,54.8,50.7,30.27,ENE,63,0.0,0.0,86,0.00,,,0.00,WeatherCatV1.02B3,2013-05-18 11:43:00,
2013-05-18 07:48:00,55.2,50.8,30.28,ENE,63,0.0,0.0,85,0.00,,,0.00,WeatherCatV1.02B3,2013-05-18 11:48:00,
2013-05-18 07:53:00,55.6,50.5,30.27,ENE,63,0.0,0.0,83,0.00,,,0.00,WeatherCatV1.02B3,2013-05-18 11:53:00,
2013-05-18 07:58:00,56.0,50.9,30.28,ENE,63,1.0,1.0,83,0.00,,,0.00,WeatherCatV1.02B3,2013-05-18 11:58:00,
2013-05-18 08:03:00,56.4,51.0,30.28,ENE,63,1.0,1.0,82,0.00,,,0.00,WeatherCatV1.02B3,2013-05-18 12:03:00,
2013-05-18 08:08:00,56.8,51.0,30.28,ENE,63,0.0,1.0,81,0.00,,,0.00,WeatherCatV1.02B3,2013-05-18 12:08:00,
2013-05-18 08:13:00,57.2,51.1,30.28,ENE,63,0.0,1.0,80,0.00,,,0.00,WeatherCatV1.02B3,2013-05-18 12:13:00,
2013-05-18 08:18:00,57.7,51.6,30.28,ENE,63,0.0,0.0,80,0.00,,,0.00,WeatherCatV1.02B3,2013-05-18 12:18:00,
2013-05-18 08:23:00,58.3,51.5,30.28,ENE,63,1.0,1.0,78,0.00,,,0.00,WeatherCatV1.02B3,2013-05-18 12:23:00,
2013-05-18 08:28:00,58.9,51.7,30.28,ENE,63,0.0,1.0,77,0.00,,,0.00,WeatherCatV1.02B3,2013-05-18 12:28:00,
2013-05-18 08:33:00,59.8,51.9,30.28,ENE,63,1.0,1.0,75,0.00,,,0.00,WeatherCatV1.02B3,2013-05-18 12:33:00,
2013-05-18 08:38:00,60.7,52.0,30.28,East,87,1.0,2.0,73,0.00,,,0.00,WeatherCatV1.02B3,2013-05-18 12:38:00,
2013-05-18 08:43:00,61.5,52.0,30.28,South,169,1.0,3.0,71,0.00,,,0.00,WeatherCatV1.02B3,2013-05-18 12:43:00,
2013-05-18 08:48:00,62.2,52.3,30.28,South,186,3.0,3.0,70,0.00,,,0.00,WeatherCatV1.02B3,2013-05-18 12:48:00,
2013-05-18 08:53:00,62.9,52.2,30.28,ENE,66,1.0,1.0,68,0.00,,,0.00,WeatherCatV1.02B3,2013-05-18 12:53:00,
2013-05-18 08:58:00,63.5,51.9,30.28,NE,44,0.0,2.0,66,0.00,,,0.00,WeatherCatV1.02B3,2013-05-18 12:58:00,
2013-05-18 09:03:00,64.0,52.0,30.28,NE,44,0.0,1.0,65,0.00,,,0.00,WeatherCatV1.02B3,2013-05-18 13:03:00,
2013-05-18 09:08:00,64.3,51.4,30.28,SSW,192,1.0,2.0,63,0.00,,,0.00,WeatherCatV1.02B3,2013-05-18 13:08:00,
2013-05-18 09:13:00,64.3,51.0,30.28,SSW,203,2.0,3.0,62,0.00,,,0.00,WeatherCatV1.02B3,2013-05-18 13:13:00,
2013-05-18 09:18:00,64.4,52.0,30.28,South,187,0.0,2.0,64,0.00,,,0.00,WeatherCatV1.02B3,2013-05-18 13:18:00,
2013-05-18 09:23:00,64.7,50.9,30.29,SSE,149,2.0,2.0,61,0.00,,,0.00,WeatherCatV1.02B3,2013-05-18 13:23:00,
2013-05-18 09:28:00,64.8,50.6,30.28,SSE,149,1.0,1.0,60,0.00,,,0.00,WeatherCatV1.02B3,2013-05-18 13:28:00,
2013-05-18 09:33:00,64.8,49.7,30.29,SSE,152,0.0,1.0,58,0.00,,,0.00,WeatherCatV1.02B3,2013-05-18 13:33:00,
2013-05-18 09:38:00,64.9,48.8,30.29,East,95,1.0,2.0,56,0.00,,,0.00,WeatherCatV1.02B3,2013-05-18 13:38:00,
2013-05-18 09:43:00,65.0,49.4,30.29,East,95,0.0,1.0,57,0.00,,,0.00,WeatherCatV1.02B3,2013-05-18 13:43:00,
2013-05-18 09:48:00,65.0,47.9,30.29,South,182,0.0,2.0,54,0.00,,,0.00,WeatherCatV1.02B3,2013-05-18 13:48:00,
2013-05-18 09:52:00,65.0,48.4,30.29,South,182,0.0,1.0,55,0.00,,,0.00,WeatherCatV1.02B3,2013-05-18 13:52:00,
2013-05-18 09:57:00,65.0,47.9,30.29,SE,133,1.0,4.0,54,0.00,,,0.00,WeatherCatV1.02B3,2013-05-18 13:57:00,
2013-05-18 10:02:00,64.9,47.4,30.29,South,186,0.0,3.0,53,0.00,,,0.00,WeatherCatV1.02B3,2013-05-18 14:02:00,
2013-05-18 10:07:00,65.0,48.4,30.29,SW,236,0.0,3.0,55,0.00,,,0.00,WeatherCatV1.02B3,2013-05-18 14:07:00,
2013-05-18 10:12:00,65.2,48.6,30.29,WSW,237,0.0,2.0,55,0.00,,,0.00,WeatherCatV1.02B3,2013-05-18 14:12:00,
2013-05-18 10:17:00,65.4,48.8,30.29,SW,236,1.0,2.0,55,0.00,,,0.00,WeatherCatV1.02B3,2013-05-18 14:17:00,
2013-05-18 10:22:00,65.6,48.5,30.29,SW,236,1.0,1.0,54,0.00,,,0.00,WeatherCatV1.02B3,2013-05-18 14:22:00,
2013-05-18 10:27:00,65.7,46.0,30.29,SW,236,1.0,2.0,49,0.00,,,0.00,WeatherCatV1.02B3,2013-05-18 14:27:00,
2013-05-18 10:32:00,65.8,47.2,30.29,SW,227,1.0,3.0,51,0.00,,,0.00,WeatherCatV1.02B3,2013-05-18 14:32:00,
2013-05-18 10:37:00,65.9,46.7,30.29,SW,227,1.0,1.0,50,0.00,,,0.00,WeatherCatV1.02B3,2013-05-18 14:37:00,
2013-05-18 10:42:00,65.8,46.6,30.28,SW,230,1.0,2.0,50,0.00,,,0.00,WeatherCatV1.02B3,2013-05-18 14:42:00,
2013-05-18 10:47:00,65.7,47.6,30.29,SW,227,1.0,2.0,52,0.00,,,0.00,WeatherCatV1.02B3,2013-05-18 14:47:00,
2013-05-18 10:52:00,65.6,48.0,30.28,SSW,200,2.0,2.0,53,0.00,,,0.00,WeatherCatV1.02B3,2013-05-18 14:52:00,
2013-05-18 10:57:00,65.7,49.1,30.28,SSW,200,1.0,2.0,55,0.00,,,0.00,WeatherCatV1.02B3,2013-05-18 14:57:00,
2013-05-18 11:02:00,65.9,48.3,30.29,SSW,195,1.0,2.0,53,0.00,,,0.00,WeatherCatV1.02B3,2013-05-18 15:02:00,
2013-05-18 11:07:00,66.0,47.9,30.29,SSW,195,2.0,2.0,52,0.00,,,0.00,WeatherCatV1.02B3,2013-05-18 15:07:00,
2013-05-18 11:12:00,66.0,47.3,30.28,SW,214,0.0,2.0,51,0.00,,,0.00,WeatherCatV1.02B3,2013-05-18 15:12:00,
2013-05-18 11:17:00,66.2,47.5,30.29,SSW,196,1.0,3.0,51,0.00,,,0.00,WeatherCatV1.02B3,2013-05-18 15:17:00,
2013-05-18 11:22:00,66.4,47.7,30.29,South,186,0.0,3.0,51,0.00,,,0.00,WeatherCatV1.02B3,2013-05-18 15:22:00,
2013-05-18 11:27:00,66.4,48.2,30.29,SSW,206,1.0,3.0,52,0.00,,,0.00,WeatherCatV1.02B3,2013-05-18 15:27:00,
2013-05-18 11:32:00,66.3,48.1,30.29,ENE,78,2.0,3.0,52,0.00,,,0.00,WeatherCatV1.02B3,2013-05-18 15:32:00,
2013-05-18 11:37:00,66.3,48.6,30.29,SW,217,1.0,2.0,53,0.00,,,0.00,WeatherCatV1.02B3,2013-05-18 15:37:00,
2013-05-18 11:42:00,66.3,48.6,30.29,NNE,14,0.0,2.0,53,0.00,,,0.00,WeatherCatV1.02B3,2013-05-18 15:42:00,
2013-05-18 11:47:00,66.2,48.6,30.29,SSW,203,3.0,3.0,53,0.00,,,0.00,WeatherCatV1.02B3,2013-05-18 15:47:00,
2013-05-18 11:52:00,66.0,48.4,30.29,SSW,200,0.0,2.0,53,0.00,,,0.00,WeatherCatV1.02B3,2013-05-18 15:52:00,
2013-05-18 11:57:00,65.9,49.3,30.29,WSW,249,0.0,1.0,55,0.00,,,0.00,WeatherCatV1.02B3,2013-05-18 15:57:00,
2013-05-18 12:02:00,65.8,49.7,30.28,West,278,1.0,3.0,56,0.00,,,0.00,WeatherCatV1.02B3,2013-05-18 16:02:00,
2013-05-18 12:07:00,65.6,49.5,30.28,SSW,202,1.0,2.0,56,0.00,,,0.00,WeatherCatV1.02B3,2013-05-18 16:07:00,
2013-05-18 12:12:00,65.3,48.7,30.29,SSW,194,1.0,5.0,55,0.00,,,0.00,WeatherCatV1.02B3,2013-05-18 16:12:00,
2013-05-18 12:17:00,65.2,50.0,30.28,SSW,194,0.0,1.0,58,0.00,,,0.00,WeatherCatV1.02B3,2013-05-18 16:17:00,
2013-05-18 12:22:00,65.2,50.0,30.28,NNW,327,0.0,1.0,58,0.00,,,0.00,WeatherCatV1.02B3,2013-05-18 16:22:00,
2013-05-18 12:27:00,65.1,50.4,30.28,SSW,206,0.0,2.0,59,0.00,,,0.00,WeatherCatV1.02B3,2013-05-18 16:27:00,
2013-05-18 12:32:00,65.0,49.9,30.28,SW,219,0.0,1.0,58,0.00,,,0.00,WeatherCatV1.02B3,2013-05-18 16:32:00,
2013-05-18 12:37:00,65.0,49.4,30.28,SW,236,2.0,2.0,57,0.00,,,0.00,WeatherCatV1.02B3,2013-05-18 16:37:00,
2013-05-18 12:42:00,64.9,50.2,30.28,SSW,194,0.0,1.0,59,0.00,,,0.00,WeatherCatV1.02B3,2013-05-18 16:42:00,
2013-05-18 12:47:00,64.9,49.3,30.28,SSE,161,3.0,3.0,57,0.00,,,0.00,WeatherCatV1.02B3,2013-05-18 16:47:00,
2013-05-18 12:52:00,64.9,49.3,30.28,South,186,0.0,4.0,57,0.00,,,0.00,WeatherCatV1.02B3,2013-05-18 16:52:00,
2013-05-18 12:57:00,64.9,48.8,30.28,SSW,200,2.0,2.0,56,0.00,,,0.00,WeatherCatV1.02B3,2013-05-18 16:57:00,
2013-05-18 13:02:00,64.9,49.3,30.28,SE,136,0.0,3.0,57,0.00,,,0.00,WeatherCatV1.02B3,2013-05-18 17:02:00,
2013-05-18 13:07:00,64.9,49.3,30.28,SSW,196,0.0,1.0,57,0.00,,,0.00,WeatherCatV1.02B3,2013-05-18 17:07:00,
2013-05-18 13:12:00,64.9,48.8,30.28,SW,215,1.0,3.0,56,0.00,,,0.00,WeatherCatV1.02B3,2013-05-18 17:12:00,
2013-05-18 13:17:00,65.0,49.4,30.28,East,94,0.0,3.0,57,0.00,,,0.00,WeatherCatV1.02B3,2013-05-18 17:17:00,
2013-05-18 13:22:00,65.1,49.0,30.28,SSE,147,1.0,1.0,56,0.00,,,0.00,WeatherCatV1.02B3,2013-05-18 17:22:00,
2013-05-18 13:27:00,65.2,49.6,30.28,South,176,1.0,2.0,57,0.00,,,0.00,WeatherCatV1.02B3,2013-05-18 17:27:00,
2013-05-18 13:32:00,65.2,49.6,30.28,South,188,1.0,3.0,57,0.00,,,0.00,WeatherCatV1.02B3,2013-05-18 17:32:00,
2013-05-18 13:37:00,65.2,49.6,30.28,SW,220,1.0,2.0,57,0.00,,,0.00,WeatherCatV1.02B3,2013-05-18 17:37:00,
2013-05-18 13:42:00,65.0,49.4,30.28,SW,228,1.0,2.0,57,0.00,,,0.00,WeatherCatV1.02B3,2013-05-18 17:42:00,
2013-05-18 13:47:00,64.9,49.8,30.28,SSW,204,0.0,2.0,58,0.00,,,0.00,WeatherCatV1.02B3,2013-05-18 17:47:00,
2013-05-18 13:52:00,64.8,49.2,30.28,SSE,151,1.0,3.0,57,0.00,,,0.00,WeatherCatV1.02B3,2013-05-18 17:52:00,
2013-05-18 13:57:00,64.7,49.6,30.28,SW,229,0.0,3.0,58,0.00,,,0.00,WeatherCatV1.02B3,2013-05-18 17:57:00,
2013-05-18 14:02:00,64.5,49.4,30.28,SW,221,1.0,1.0,58,0.00,,,0.00,WeatherCatV1.02B3,2013-05-18 18:02:00,
2013-05-18 14:07:00,64.4,49.8,30.28,SSW,196,2.0,5.0,59,0.00,,,0.00,WeatherCatV1.02B3,2013-05-18 18:07:00,
2013-05-18 14:12:00,64.3,50.6,30.28,SSW,212,1.0,2.0,61,0.00,,,0.00,WeatherCatV1.02B3,2013-05-18 18:12:00,
2013-05-18 14:17:00,64.1,50.4,30.28,SSW,209,1.0,2.0,61,0.00,,,0.00,WeatherCatV1.02B3,2013-05-18 18:17:00,
2013-05-18 14:22:00,64.0,50.3,30.28,South,185,2.0,2.0,61,0.00,,,0.00,WeatherCatV1.02B3,2013-05-18 18:22:00,
2013-05-18 14:27:00,63.9,49.7,30.28,SSW,204,0.0,2.0,60,0.00,,,0.00,WeatherCatV1.02B3,2013-05-18 18:27:00,
2013-05-18 14:32:00,63.8,50.5,30.28,SSW,213,1.0,2.0,62,0.00,,,0.00,WeatherCatV1.02B3,2013-05-18 18:32:00,
2013-05-18 14:37:00,63.7,50.4,30.28,SSW,208,0.0,2.0,62,0.00,,,0.00,WeatherCatV1.02B3,2013-05-18 18:37:00,
2013-05-18 14:42:00,63.6,50.3,30.28,SSW,206,0.0,1.0,62,0.00,,,0.00,WeatherCatV1.02B3,2013-05-18 18:42:00,
2013-05-18 14:47:00,63.5,50.2,30.28,SSW,211,1.0,1.0,62,0.00,,,0.00,WeatherCatV1.02B3,2013-05-18 18:47:00,
2013-05-18 14:52:00,63.5,50.7,30.28,SW,214,0.0,1.0,63,0.00,,,0.00,WeatherCatV1.02B3,2013-05-18 18:52:00,
2013-05-18 14:57:00,63.5,50.7,30.28,WSW,240,0.0,1.0,63,0.00,,,0.00,WeatherCatV1.02B3,2013-05-18 18:57:00,
2013-05-18 15:02:00,63.6,50.3,30.28,ENE,58,0.0,1.0,62,0.00,,,0.00,WeatherCatV1.02B3,2013-05-18 19:02:00,
2013-05-18 15:07:00,63.5,51.1,30.28,SSW,194,0.0,1.0,64,0.00,,,0.00,WeatherCatV1.02B3,2013-05-18 19:07:00,
2013-05-18 15:12:00,63.5,51.5,30.28,SSW,194,0.0,1.0,65,0.00,,,0.00,WeatherCatV1.02B3,2013-05-18 19:12:00,
2013-05-18 15:17:00,63.6,51.6,30.28,SSW,194,0.0,1.0,65,0.00,,,0.00,WeatherCatV1.02B3,2013-05-18 19:17:00,
2013-05-18 15:22:00,63.5,51.5,30.28,SSW,194,0.0,1.0,65,0.00,,,0.00,WeatherCatV1.02B3,2013-05-18 19:22:00,
2013-05-18 15:27:00,63.4,51.4,30.28,South,188,1.0,1.0,65,0.00,,,0.00,WeatherCatV1.02B3,2013-05-18 19:27:00,
2013-05-18 15:32:00,63.2,51.6,30.28,SSW,202,0.0,1.0,66,0.00,,,0.00,WeatherCatV1.02B3,2013-05-18 19:32:00,
2013-05-18 15:38:00,63.1,52.8,30.28,SSW,202,0.0,1.0,69,0.00,,,0.00,WeatherCatV1.02B3,2013-05-18 19:38:00,
2013-05-18 15:43:00,63.0,52.3,30.28,SSW,202,0.0,2.0,68,0.00,,,0.00,WeatherCatV1.02B3,2013-05-18 19:43:00,
2013-05-18 15:48:00,62.8,53.3,30.29,SSW,202,1.0,1.0,71,0.00,,,0.00,WeatherCatV1.02B3,2013-05-18 19:48:00,
2013-05-18 15:53:00,62.6,53.4,30.28,SW,222,0.0,1.0,72,0.00,,,0.00,WeatherCatV1.02B3,2013-05-18 19:53:00,
2013-05-18 15:58:00,62.5,53.7,30.28,SW,222,0.0,1.0,73,0.00,,,0.00,WeatherCatV1.02B3,2013-05-18 19:58:00,
2013-05-18 16:03:00,62.4,54.0,30.29,SW,223,0.0,1.0,74,0.00,,,0.00,WeatherCatV1.02B3,2013-05-18 20:03:00,
2013-05-18 16:08:00,62.3,54.6,30.29,SW,226,0.0,2.0,76,0.00,,,0.00,WeatherCatV1.02B3,2013-05-18 20:08:00,
2013-05-18 16:13:00,62.3,54.3,30.29,SW,226,1.0,2.0,75,0.00,,,0.00,WeatherCatV1.02B3,2013-05-18 20:13:00,
2013-05-18 16:18:00,62.1,54.8,30.29,SW,226,1.0,1.0,77,0.00,,,0.00,WeatherCatV1.02B3,2013-05-18 20:18:00,
2013-05-18 16:23:00,62.0,55.1,30.29,SW,226,0.0,0.0,78,0.00,,,0.00,WeatherCatV1.02B3,2013-05-18 20:23:00,
2013-05-18 16:28:00,61.9,55.0,30.29,East,100,0.0,1.0,78,0.00,,,0.00,WeatherCatV1.02B3,2013-05-18 20:28:00,
2013-05-18 16:33:00,61.7,54.8,30.29,ESE,111,0.0,1.0,78,0.00,,,0.00,WeatherCatV1.02B3,2013-05-18 20:33:00,
2013-05-18 16:38:00,61.7,54.8,30.29,ESE,111,0.0,1.0,78,0.00,,,0.00,WeatherCatV1.02B3,2013-05-18 20:38:00,
2013-05-18 16:43:00,61.6,55.0,30.29,ESE,111,0.0,1.0,79,0.00,,,0.00,WeatherCatV1.02B3,2013-05-18 20:43:00,
2013-05-18 16:48:00,61.6,54.7,30.29,SSE,152,0.0,1.0,78,0.00,,,0.00,WeatherCatV1.02B3,2013-05-18 20:48:00,
2013-05-18 16:53:00,61.5,54.9,30.28,South,180,0.0,2.0,79,0.00,,,0.00,WeatherCatV1.02B3,2013-05-18 20:53:00,
2013-05-18 16:58:00,61.4,54.8,30.28,South,180,1.0,2.0,79,0.00,,,0.00,WeatherCatV1.02B3,2013-05-18 20:58:00,
2013-05-18 17:03:00,61.4,54.8,30.28,SSW,198,0.0,3.0,79,0.00,,,0.00,WeatherCatV1.02B3,2013-05-18 21:03:00,
2013-05-18 17:08:00,61.4,54.5,30.29,SSW,211,1.0,2.0,78,0.00,,,0.00,WeatherCatV1.02B3,2013-05-18 21:08:00,
2013-05-18 17:13:00,61.3,53.3,30.28,SSW,210,1.0,3.0,75,0.00,,,0.00,WeatherCatV1.02B3,2013-05-18 21:13:00,
2013-05-18 17:18:00,61.3,51.4,30.28,SSW,210,1.0,5.0,70,0.00,,,0.00,WeatherCatV1.02B3,2013-05-18 21:18:00,
2013-05-18 17:23:00,61.3,51.0,30.28,SSW,194,0.0,1.0,69,0.00,,,0.00,WeatherCatV1.02B3,2013-05-18 21:23:00,
2013-05-18 17:28:00,61.3,51.4,30.28,SSE,156,0.0,1.0,70,0.00,,,0.00,WeatherCatV1.02B3,2013-05-18 21:28:00,
2013-05-18 17:33:00,61.3,51.4,30.28,SSW,210,0.0,1.0,70,0.00,,,0.00,WeatherCatV1.02B3,2013-05-18 21:33:00,
2013-05-18 17:38:00,61.3,51.4,30.28,SSW,207,1.0,3.0,70,0.00,,,0.00,WeatherCatV1.02B3,2013-05-18 21:38:00,
2013-05-18 17:43:00,61.2,51.7,30.27,SSW,206,0.0,0.0,71,0.00,,,0.00,WeatherCatV1.02B3,2013-05-18 21:43:00,
2013-05-18 17:48:00,61.1,50.5,30.28,SSW,212,0.0,1.0,68,0.00,,,0.00,WeatherCatV1.02B3,2013-05-18 21:48:00,
2013-05-18 17:53:00,61.1,50.5,30.28,SSE,165,1.0,2.0,68,0.00,,,0.00,WeatherCatV1.02B3,2013-05-18 21:53:00,
2013-05-18 17:58:00,61.1,50.8,30.28,SW,214,0.0,2.0,69,0.00,,,0.00,WeatherCatV1.02B3,2013-05-18 21:58:00,
2013-05-18 18:03:00,61.2,51.3,30.27,SW,215,0.0,1.0,70,0.00,,,0.00,WeatherCatV1.02B3,2013-05-18 22:03:00,
2013-05-18 18:08:00,61.2,51.3,30.27,SSW,206,1.0,3.0,70,0.00,,,0.00,WeatherCatV1.02B3,2013-05-18 22:08:00,
2013-05-18 18:13:00,61.3,51.8,30.27,SE,145,0.0,1.0,71,0.00,,,0.00,WeatherCatV1.02B3,2013-05-18 22:13:00,
2013-05-18 18:18:00,61.3,51.8,30.28,SE,145,1.0,1.0,71,0.00,,,0.00,WeatherCatV1.02B3,2013-05-18 22:18:00,
2013-05-18 18:23:00,61.4,51.5,30.27,WSW,241,1.0,2.0,70,0.00,,,0.00,WeatherCatV1.02B3,2013-05-18 22:23:00,
2013-05-18 18:28:00,61.4,51.5,30.27,ESE,114,1.0,1.0,70,0.00,,,0.00,WeatherCatV1.02B3,2013-05-18 22:28:00,
2013-05-18 18:33:00,61.5,51.6,30.27,SW,220,1.0,2.0,70,0.00,,,0.00,WeatherCatV1.02B3,2013-05-18 22:33:00,
2013-05-18 18:38:00,61.5,51.6,30.27,SSW,202,0.0,2.0,70,0.00,,,0.00,WeatherCatV1.02B3,2013-05-18 22:38:00,
2013-05-18 18:43:00,61.5,51.6,30.27,SSW,197,1.0,5.0,70,0.00,,,0.00,WeatherCatV1.02B3,2013-05-18 22:43:00,
2013-05-18 18:48:00,61.4,51.5,30.27,SSW,197,0.0,2.0,70,0.00,,,0.00,WeatherCatV1.02B3,2013-05-18 22:48:00,
2013-05-18 18:53:00,61.4,51.9,30.28,SSE,163,0.0,1.0,71,0.00,,,0.00,WeatherCatV1.02B3,2013-05-18 22:53:00,
2013-05-18 18:58:00,61.4,51.9,30.28,SSE,163,0.0,0.0,71,0.00,,,0.00,WeatherCatV1.02B3,2013-05-18 22:58:00,
2013-05-18 19:03:00,61.4,52.3,30.28,SE,143,0.0,1.0,72,0.00,,,0.00,WeatherCatV1.02B3,2013-05-18 23:03:00,
2013-05-18 19:08:00,61.4,52.3,30.28,East,82,0.0,1.0,72,0.00,,,0.00,WeatherCatV1.02B3,2013-05-18 23:08:00,
2013-05-18 19:13:00,61.4,52.3,30.29,East,82,0.0,1.0,72,0.00,,,0.00,WeatherCatV1.02B3,2013-05-18 23:13:00,
2013-05-18 19:18:00,61.4,52.3,30.28,East,82,0.0,1.0,72,0.00,,,0.00,WeatherCatV1.02B3,2013-05-18 23:18:00,
2013-05-18 19:23:00,61.3,52.6,30.28,WSW,243,0.0,1.0,73,0.00,,,0.00,WeatherCatV1.02B3,2013-05-18 23:23:00,
2013-05-18 19:28:00,61.3,52.6,30.28,SSW,202,0.0,0.0,73,0.00,,,0.00,WeatherCatV1.02B3,2013-05-18 23:28:00,
2013-05-18 19:33:00,61.3,52.6,30.29,SSW,202,0.0,0.0,73,0.00,,,0.00,WeatherCatV1.02B3,2013-05-18 23:33:00,
2013-05-18 19:38:00,61.2,52.5,30.29,SSW,202,0.0,1.0,73,0.00,,,0.00,WeatherCatV1.02B3,2013-05-18 23:38:00,
2013-05-18 19:43:00,61.2,52.8,30.29,SSW,202,0.0,1.0,74,0.00,,,0.00,WeatherCatV1.02B3,2013-05-18 23:43:00,
2013-05-18 19:48:00,61.1,52.7,30.29,SSW,202,0.0,1.0,74,0.00,,,0.00,WeatherCatV1.02B3,2013-05-18 23:48:00,
2013-05-18 19:53:00,61.0,53.0,30.29,SSW,202,0.0,1.0,75,0.00,,,0.00,WeatherCatV1.02B3,2013-05-18 23:53:00,
2013-05-18 19:58:00,60.9,52.9,30.29,SSW,202,0.0,1.0,75,0.00,,,0.00,WeatherCatV1.02B3,2013-05-18 23:58:00,
2013-05-18 20:03:00,60.9,52.9,30.29,SSW,202,0.0,0.0,75,0.00,,,0.00,WeatherCatV1.02B3,2013-05-19 00:03:00,
2013-05-18 20:08:00,60.8,53.2,30.29,SSW,202,0.0,1.0,76,0.00,,,0.00,WeatherCatV1.02B3,2013-05-19 00:08:00,
2013-05-18 20:13:00,60.7,53.4,30.29,SSW,202,0.0,1.0,77,0.00,,,0.00,WeatherCatV1.02B3,2013-05-19 00:13:00,
2013-05-18 20:18:00,60.7,53.4,30.29,SE,138,0.0,0.0,77,0.00,,,0.00,WeatherCatV1.02B3,2013-05-19 00:18:00,
2013-05-18 20:23:00,60.6,53.7,30.28,SE,146,1.0,2.0,78,0.00,,,0.00,WeatherCatV1.02B3,2013-05-19 00:23:00,
2013-05-18 20:28:00,60.5,53.6,30.28,SE,146,0.0,0.0,78,0.00,,,0.00,WeatherCatV1.02B3,2013-05-19 00:28:00,
2013-05-18 20:33:00,60.5,53.6,30.28,SE,146,0.0,0.0,78,0.00,,,0.00,WeatherCatV1.02B3,2013-05-19 00:33:00,
2013-05-18 20:38:00,60.4,53.5,30.28,SE,146,0.0,1.0,78,0.00,,,0.00,WeatherCatV1.02B3,2013-05-19 00:38:00,
2013-05-18 20:43:00,60.3,53.4,30.28,SSW,203,0.0,3.0,78,0.00,,,0.00,WeatherCatV1.02B3,2013-05-19 00:43:00,
2013-05-18 20:48:00,60.3,53.4,30.28,SSW,204,0.0,1.0,78,0.00,,,0.00,WeatherCatV1.02B3,2013-05-19 00:48:00,
2013-05-18 20:53:00,60.2,53.3,30.28,SSE,156,1.0,1.0,78,0.00,,,0.00,WeatherCatV1.02B3,2013-05-19 00:53:00,
2013-05-18 20:58:00,60.2,53.0,30.28,West,273,0.0,2.0,77,0.00,,,0.00,WeatherCatV1.02B3,2013-05-19 00:58:00,
2013-05-18 21:03:00,60.2,53.0,30.28,SSE,161,0.0,2.0,77,0.00,,,0.00,WeatherCatV1.02B3,2013-05-19 01:03:00,
2013-05-18 21:08:00,60.2,53.0,30.29,SSW,212,1.0,1.0,77,0.00,,,0.00,WeatherCatV1.02B3,2013-05-19 01:08:00,
2013-05-18 21:13:00,60.2,53.0,30.29,SSW,204,0.0,2.0,77,0.00,,,0.00,WeatherCatV1.02B3,2013-05-19 01:13:00,
2013-05-18 21:18:00,60.1,52.9,30.29,SSW,205,0.0,2.0,77,0.00,,,0.00,WeatherCatV1.02B3,2013-05-19 01:18:00,
2013-05-18 21:23:00,60.1,52.9,30.29,NNE,25,1.0,3.0,77,0.00,,,0.00,WeatherCatV1.02B3,2013-05-19 01:23:00,
2013-05-18 21:28:00,60.0,52.8,30.29,NNE,25,0.0,2.0,77,0.00,,,0.00,WeatherCatV1.02B3,2013-05-19 01:28:00,
2013-05-18 21:33:00,60.0,52.8,30.29,WNW,284,0.0,1.0,77,0.00,,,0.00,WeatherCatV1.02B3,2013-05-19 01:33:00,
2013-05-18 21:38:00,59.9,52.7,30.28,WNW,284,0.0,1.0,77,0.00,,,0.00,WeatherCatV1.02B3,2013-05-19 01:38:00,
2013-05-18 21:43:00,59.9,52.7,30.29,WNW,284,0.0,0.0,77,0.00,,,0.00,WeatherCatV1.02B3,2013-05-19 01:43:00,
2013-05-18 21:48:00,59.8,52.6,30.29,WNW,284,0.0,0.0,77,0.00,,,0.00,WeatherCatV1.02B3,2013-05-19 01:48:00,
2013-05-18 21:53:00,59.8,52.6,30.29,WNW,284,0.0,1.0,77,0.00,,,0.00,WeatherCatV1.02B3,2013-05-19 01:53:00,
2013-05-18 21:58:00,59.7,52.1,30.29,WNW,284,1.0,1.0,76,0.00,,,0.00,WeatherCatV1.02B3,2013-05-19 01:58:00,
2013-05-18 22:03:00,59.7,52.1,30.29,SSW,199,1.0,2.0,76,0.00,,,0.00,WeatherCatV1.02B3,2013-05-19 02:03:00,
2013-05-18 22:08:00,59.7,51.4,30.29,SSW,198,0.0,0.0,74,0.00,,,0.00,WeatherCatV1.02B3,2013-05-19 02:08:00,
2013-05-18 22:13:00,59.7,51.4,30.29,SSW,198,0.0,0.0,74,0.00,,,0.00,WeatherCatV1.02B3,2013-05-19 02:13:00,
2013-05-18 22:18:00,59.7,51.8,30.29,SSW,198,1.0,1.0,75,0.00,,,0.00,WeatherCatV1.02B3,2013-05-19 02:18:00,
2013-05-18 22:23:00,59.7,51.8,30.29,South,175,0.0,1.0,75,0.00,,,0.00,WeatherCatV1.02B3,2013-05-19 02:23:00,
2013-05-18 22:28:00,59.7,51.8,30.29,South,181,0.0,0.0,75,0.00,,,0.00,WeatherCatV1.02B3,2013-05-19 02:28:00,
2013-05-18 22:33:00,59.6,51.7,30.29,South,179,0.0,0.0,75,0.00,,,0.00,WeatherCatV1.02B3,2013-05-19 02:33:00,
2013-05-18 22:38:00,59.6,52.0,30.29,South,179,0.0,0.0,76,0.00,,,0.00,WeatherCatV1.02B3,2013-05-19 02:38:00,
2013-05-18 22:43:00,59.6,52.0,30.29,South,179,0.0,0.0,76,0.00,,,0.00,WeatherCatV1.02B3,2013-05-19 02:43:00,
2013-05-18 22:48:00,59.5,51.6,30.29,South,179,0.0,0.0,75,0.00,,,0.00,WeatherCatV1.02B3,2013-05-19 02:48:00,
2013-05-18 22:53:00,59.4,51.5,30.29,South,179,0.0,0.0,75,0.00,,,0.00,WeatherCatV1.02B3,2013-05-19 02:53:00,
2013-05-18 22:58:00,59.4,51.5,30.29,South,179,0.0,0.0,75,0.00,,,0.00,WeatherCatV1.02B3,2013-05-19 02:58:00,
2013-05-18 23:03:00,59.3,51.4,30.29,South,179,0.0,0.0,75,0.00,,,0.00,WeatherCatV1.02B3,2013-05-19 03:03:00,
2013-05-18 23:08:00,59.3,51.4,30.28,South,179,0.0,0.0,75,0.00,,,0.00,WeatherCatV1.02B3,2013-05-19 03:08:00,
2013-05-18 23:13:00,59.2,51.3,30.29,South,179,0.0,0.0,75,0.00,,,0.00,WeatherCatV1.02B3,2013-05-19 03:13:00,
2013-05-18 23:18:00,59.1,51.2,30.28,South,179,0.0,0.0,75,0.00,,,0.00,WeatherCatV1.02B3,2013-05-19 03:18:00,
2013-05-18 23:23:00,59.0,51.1,30.29,South,179,0.0,0.0,75,0.00,,,0.00,WeatherCatV1.02B3,2013-05-19 03:23:00,
2013-05-18 23:28:00,58.9,51.3,30.28,South,179,0.0,0.0,76,0.00,,,0.00,WeatherCatV1.02B3,2013-05-19 03:28:00,
2013-05-18 23:33:00,58.8,51.2,30.28,South,179,0.0,0.0,76,0.00,,,0.00,WeatherCatV1.02B3,2013-05-19 03:33:00,
2013-05-18 23:38:00,58.7,51.5,30.28,South,179,0.0,0.0,77,0.00,,,0.00,WeatherCatV1.02B3,2013-05-19 03:38:00,
2013-05-18 23:43:00,58.6,51.4,30.29,South,179,0.0,0.0,77,0.00,,,0.00,WeatherCatV1.02B3,2013-05-19 03:43:00,
2013-05-18 23:48:00,58.5,51.3,30.28,South,179,0.0,0.0,77,0.00,,,0.00,WeatherCatV1.02B3,2013-05-19 03:48:00,
2013-05-18 23:53:00,58.5,51.3,30.28,South,179,0.0,0.0,77,0.00,,,0.00,WeatherCatV1.02B3,2013-05-19 03:53:00,
2013-05-18 23:55:00,58.4,51.6,30.28,South,179,0.0,0.0,78,0.00,,,0.00,WeatherCatV1.02B3,2013-05-19 03:55:00,